Regional Weather Roundup
Issued by NWS

Home | Current Version | Previous Version | Text Only | Print | Product List | Glossary Off
Versions: 1 2 3 4 5 6 7 8 9 10 11 12 13 14 15 16 17 18 19 20 21 22 23 24 25 26 27 28 29 30 31 32 33 34 35 36 37 38 39 40 41 42 43 44 45 46 47 48 49 50

000
ASUS45 KCYS 211710
RWRWY

WYOMING REGIONAL WEATHER ROUNDUP
NATIONAL WEATHER SERVICE CHEYENNE WY
1000 AM MST SUN DEC 21 2014

NOTE:  "FAIR" INDICATES FEW OR NO CLOUDS BELOW 12,000 FEET
WITH NO SIGNIFICANT WEATHER AND/OR OBSTRUCTIONS TO VISIBILITY.

WYZ001-211800-
YELLOWSTONE NATIONAL PARK

CITY           SKY/WX    TMP DP  RH WIND       PRES   REMARKS
LK YELLOWSTONE   N/A     28  25  88 W7        29.65R WCI  21
W YELLOWSTONE  NOT AVBL

$$
WYZ002>013-054>058-071-098>099-211800-
NORTHERN WYOMING

CITY           SKY/WX    TMP DP  RH WIND       PRES   REMARKS
JACKSON        BLWGSNOW  34  34 100 SW8       29.67F VSB 1   WCI  27
CODY           FAIR      45  28  53 W21G26    29.50R
GREYBULL       CLOUDY    24  20  84 S5        29.57R WCI  18
WORLAND        CLOUDY    27  22  81 SE14      29.53F WCI  16
SHERIDAN       CLOUDY    38  25  59 S5        29.44F WCI  34
BUFFALO        PTSUNNY   46  22  38 E5        29.46S
GILLETTE       CLOUDY    40  27  59 SW15      29.45R WCI  32
HULETT           N/A    N/A N/A N/A MISG        N/A
NEWCASTLE      FAIR      32  28  86 W3        29.51F

$$
WYZ014>020-022>026-101>103-211800-
CENTRAL WYOMING

CITY           SKY/WX    TMP DP  RH WIND       PRES   REMARKS
BIG PINEY      LGT SNOW  33  29  85 W13       29.73S FOG     WCI  24
PINEDALE       LGT SNOW  30  30 100 S5        29.74S WCI  25
DUBOIS         NOT AVBL
LANDER         FAIR      31  21  66 VRB3      29.59R
RIVERTON       FAIR      31  23  72 N3        29.60R
CASPER         FAIR      38  29  70 SW16G30   29.57S WCI  29
DOUGLAS        PTSUNNY   45  28  51 W31G41    29.51F

$$
WYZ021-027>030-104>119-211800-
SOUTHERN WYOMING

CITY           SKY/WX    TMP DP  RH WIND       PRES   REMARKS
EVANSTON       LGT SNOW  33  32  96 SW25G32   29.89S VSB 3/4 WCI  20
KEMMERER       LGT SNOW  32  32 100 SW31G40   29.81F WCI  17
FORT BRIDGER   CLOUDY    36  34  94 W33G39    29.86S WCI  22
ROCK SPRINGS   PTSUNNY   35  30  82 W31       29.77F WCI  22
DIXON          LGT SNOW  32  29  90 SW24G36   29.84S WCI  19
RAWLINS        MIX PCPN  32  28  85 SW30G41   29.69F FOG     WCI  18
SARATOGA       CLOUDY    32  28  86 SW30G37   29.72F WCI  18
LARAMIE        CLOUDY    33  23  66 VRB5G18   29.69S WCI  29
CHEYENNE       FAIR      42  21  43 W25G35    29.61F
TORRINGTON     PTSUNNY  N/A N/A N/A W21G28    29.55F
PINE BLUFFS    PTSUNNY   34  23  64 S10       29.63F WCI  26

$$



USA.gov is the U.S. government's official web portal to all federal, state and local government web resources and services.